Regional Weather Roundup
Issued by NWS

Home | Current Version | Previous Version | Graphics & Text | Print | Product List | Glossary On
Versions: 1 2 3 4 5 6 7 8 9 10 11 12 13 14 15 16 17 18 19 20 21 22 23 24 25 26 27 28 29 30 31 32 33 34 35 36 37 38 39 40 41 42 43 44 45 46 47 48 49 50
306
ASUS45 KCYS 181210
RWRWY

WYOMING REGIONAL WEATHER ROUNDUP
NATIONAL WEATHER SERVICE CHEYENNE WY
500 AM MST THU JAN 18 2018

NOTE:  "FAIR" INDICATES FEW OR NO CLOUDS BELOW 12,000 FEET
WITH NO SIGNIFICANT WEATHER AND/OR OBSTRUCTIONS TO VISIBILITY.

WYZ001-181300-
YELLOWSTONE NATIONAL PARK

CITY           SKY/WX    TMP DP  RH WIND       PRES   REMARKS
LK YELLOWSTONE   N/A     20  18  92 CALM      30.22F
6HR MIN TEMP:  18; 6HR MAX TEMP:  24;

W YELLOWSTONE  NOT AVBL

$$
WYZ002>013-054>058-071-098>099-181300-
NORTHERN WYOMING

CITY           SKY/WX    TMP DP  RH WIND       PRES   REMARKS
JACKSON        MOCLDY    10   7  87 NE3       30.27F FOG
CODY           FAIR      46  23  40 W16G26    30.02F
GREYBULL       FAIR      10   7  87 CALM      30.09S
6HR MIN TEMP:   8; 6HR MAX TEMP:  13;

WORLAND        FAIR      10   8  92 CALM      30.07S
6HR MIN TEMP:   7; 6HR MAX TEMP:  14;

SHERIDAN       FAIR      26  18  71 S9        29.91S WCI  17
6HR MIN TEMP:  23; 6HR MAX TEMP:  36;

BUFFALO        FAIR      45  11  25 W8        29.95S
6HR MIN TEMP:  35; 6HR MAX TEMP:  45;

GILLETTE         N/A    N/A N/A N/A MISG      29.94S
HULETT         FAIR      37  19  48 SW10      29.94F WCI  30
NEWCASTLE      FAIR      23  18  80 CALM      30.00F

$$
WYZ014>020-022>026-101>103-181300-
CENTRAL WYOMING

CITY           SKY/WX    TMP DP  RH WIND       PRES   REMARKS
BIG PINEY      FAIR      15  12  88 CALM      30.25R
6HR MIN TEMP:  11; 6HR MAX TEMP:  16;

PINEDALE       FAIR      18  14  86 W3        30.25R
DUBOIS         FAIR      30  16  55 NW15      30.14F WCI  19
LANDER         FAIR      18  14  84 W5        30.10F WCI  11
6HR MIN TEMP:  15; 6HR MAX TEMP:  24;

RIVERTON       FAIR      17  11  77 NW5       30.12S WCI  10
6HR MIN TEMP:  13; 6HR MAX TEMP:  20;

CASPER         FAIR      35  22  58 SW21      30.07F WCI  24
6HR MIN TEMP:  35; 6HR MAX TEMP:  37;

DOUGLAS        FAIR      35  21  56 W10       30.01F WCI  27
6HR MIN TEMP:  21; 6HR MAX TEMP:  38;


$$
WYZ021-027>030-104>119-181300-
SOUTHERN WYOMING

CITY           SKY/WX    TMP DP  RH WIND       PRES   REMARKS
EVANSTON       FAIR      27  21  78 SW5       30.25S WCI  22
6HR MIN TEMP:  26; 6HR MAX TEMP:  30;

FORT BRIDGER   FAIR      32  12  44 W7        30.27R WCI  25
ROCK SPRINGS   FAIR      27  21  78 S7        30.23F WCI  19
6HR MIN TEMP:  25; 6HR MAX TEMP:  30;

DIXON            N/A     18  13  82 CALM      30.30F
RAWLINS        FAIR      29  18  63 W5        30.20F WCI  24
6HR MIN TEMP:  26; 6HR MAX TEMP:  31;

SARATOGA       FAIR      28  18  64 S17       30.22F WCI  16
LARAMIE        FAIR      29  15  56 SW15      30.14F WCI  18
6HR MIN TEMP:  16; 6HR MAX TEMP:  29;

CHEYENNE       FAIR      37  12  35 SE3       30.07F
6HR MIN TEMP:  27; 6HR MAX TEMP:  40;

TORRINGTON     FAIR      24  19  81 CALM      30.01F
6HR MIN TEMP:  19; 6HR MAX TEMP:  34;


$$




USA.gov is the U.S. government's official web portal to all federal, state and local government web resources and services.